Radiation Dose at Monitoring Post of Fukushima Daini Nuclear Power Station
Date,Time,MP-1(microSv/h),MP-2(microSv/h),MP-3(microSv/h),MP-4(microSv/h),MP-5(microSv/h),MP-6(microSv/h),MP-7(microSv/h),Wind Direction,Wind Velocity(m/s),Rain
2020/05/18,00:00,0.183,0.167,0.274,0.260,0.264,0.143,0.086,northwest,3.5,No
2020/05/18,00:10,0.182,0.167,0.272,0.261,0.263,0.144,0.087,northwest,3.3,No
2020/05/18,00:20,0.183,0.165,0.275,0.259,0.265,0.143,0.086,northwest,3.7,No
2020/05/18,00:30,0.181,0.166,0.274,0.261,0.262,0.143,0.086,north-northwest,4.1,No
2020/05/18,00:40,0.184,0.166,0.272,0.259,0.264,0.144,0.087,north-northwest,3.1,No
2020/05/18,00:50,0.181,0.167,0.273,0.259,0.263,0.144,0.086,northwest,3.0,No
2020/05/18,01:00,0.183,0.167,0.273,0.261,0.264,0.145,0.087,northwest,2.9,No
2020/05/18,01:10,0.183,0.167,0.275,0.260,0.263,0.144,0.086,north-northwest,2.9,No
2020/05/18,01:20,0.182,0.167,0.273,0.260,0.264,0.143,0.087,northwest,3.1,No
2020/05/18,01:30,0.183,0.167,0.275,0.260,0.263,0.143,0.086,north-northwest,3.2,No
2020/05/18,01:40,0.182,0.167,0.273,0.261,0.263,0.144,0.087,north-northwest,3.1,No
2020/05/18,01:50,0.183,0.166,0.274,0.260,0.263,0.144,0.087,north-northwest,2.4,No
2020/05/18,02:00,0.182,0.167,0.273,0.260,0.261,0.143,0.087,north-northwest,2.5,No
2020/05/18,02:10,0.183,0.166,0.272,0.260,0.264,0.144,0.086,north-northwest,2.1,No
2020/05/18,02:20,0.182,0.167,0.273,0.260,0.261,0.143,0.087,north-northwest,2.1,No
2020/05/18,02:30,0.182,0.167,0.273,0.261,0.262,0.145,0.086,northeast,0.9,No
2020/05/18,02:40,0.181,0.166,0.274,0.259,0.261,0.144,0.086,north-northeast,1.6,No
2020/05/18,02:50,0.183,0.167,0.273,0.260,0.263,0.144,0.086,north-northeast,1.0,No
2020/05/18,03:00,0.181,0.166,0.273,0.259,0.262,0.144,0.086,north-northwest,0.7,No
2020/05/18,03:10,0.183,0.166,0.273,0.260,0.264,0.143,0.087,north-northeast,1.3,No
2020/05/18,03:20,0.182,0.166,0.273,0.259,0.262,0.143,0.086,north,1.0,No
2020/05/18,03:30,0.183,0.166,0.274,0.260,0.265,0.144,0.086,north-northeast,0.8,No
2020/05/18,03:40,0.182,0.166,0.271,0.261,0.263,0.144,0.085,-,CALM,No
2020/05/18,03:50,0.182,0.168,0.274,0.260,0.263,0.143,0.087,-,CALM,No
2020/05/18,04:00,0.184,0.167,0.274,0.261,0.263,0.143,0.086,north-northeast,1.1,No
2020/05/18,04:10,0.182,0.167,0.273,0.260,0.262,0.144,0.086,-,CALM,No
2020/05/18,04:20,0.183,0.167,0.273,0.261,0.265,0.144,0.086,north-northwest,1.3,No
2020/05/18,04:30,0.182,0.168,0.273,0.260,0.260,0.142,0.087,west-northwest,0.9,No
2020/05/18,04:40,0.183,0.167,0.274,0.260,0.264,0.143,0.087,northwest,1.6,No
2020/05/18,04:50,0.182,0.166,0.272,0.260,0.262,0.144,0.087,west,1.1,No
2020/05/18,05:00,0.183,0.167,0.273,0.260,0.263,0.143,0.087,-,CALM,No
2020/05/18,05:10,0.182,0.167,0.273,0.261,0.261,0.144,0.086,-,CALM,No
2020/05/18,05:20,0.182,0.166,0.273,0.260,0.263,0.143,0.086,west,0.6,No
2020/05/18,05:30,0.183,0.166,0.273,0.260,0.262,0.144,0.087,west-northwest,0.9,No
2020/05/18,05:40,0.182,0.166,0.273,0.260,0.265,0.143,0.087,west-northwest,0.8,No
2020/05/18,05:50,0.182,0.166,0.274,0.260,0.262,0.144,0.086,west,0.8,No
2020/05/18,06:00,0.182,0.167,0.272,0.259,0.264,0.143,0.086,-,CALM,No
2020/05/18,06:10,0.183,0.166,0.275,0.260,0.262,0.144,0.087,-,CALM,No
2020/05/18,06:20,0.182,0.166,0.273,0.260,0.264,0.144,0.087,-,CALM,No
2020/05/18,06:30,0.183,0.166,0.274,0.259,0.263,0.144,0.087,-,CALM,No
2020/05/18,06:40,0.183,0.166,0.272,0.262,0.263,0.144,0.087,-,CALM,No
2020/05/18,06:50,0.183,0.167,0.274,0.259,0.262,0.145,0.086,-,CALM,No
2020/05/18,07:00,0.182,0.166,0.272,0.261,0.265,0.143,0.087,-,CALM,No
2020/05/18,07:10,0.182,0.167,0.274,0.259,0.262,0.143,0.087,-,CALM,No
2020/05/18,07:20,0.181,0.166,0.273,0.261,0.265,0.143,0.086,-,CALM,No
2020/05/18,07:30,0.182,0.165,0.275,0.258,0.260,0.143,0.086,-,CALM,No
2020/05/18,07:40,0.182,0.166,0.272,0.261,0.265,0.143,0.086,-,CALM,No
2020/05/18,07:50,0.183,0.167,0.274,0.259,0.262,0.143,0.088,-,CALM,No
2020/05/18,08:00,0.182,0.166,0.272,0.259,0.262,0.144,0.086,south-southeast,0.7,No
2020/05/18,08:10,0.183,0.166,0.273,0.258,0.262,0.144,0.087,-,CALM,No
2020/05/18,08:20,0.182,0.166,0.272,0.258,0.262,0.143,0.087,-,CALM,No
2020/05/18,08:30,0.182,0.167,0.273,0.261,0.263,0.144,0.086,-,CALM,No
2020/05/18,08:40,0.182,0.166,0.273,0.259,0.261,0.143,0.086,east-southeast,0.9,No
2020/05/18,08:50,0.182,0.167,0.273,0.260,0.265,0.142,0.086,east,1.6,No
2020/05/18,09:00,0.182,0.166,0.273,0.259,0.261,0.143,0.087,east-northeast,0.9,No
2020/05/18,09:10,0.182,0.167,0.273,0.260,0.262,0.143,0.087,east,1.4,No
2020/05/18,09:20,0.182,0.166,0.272,0.258,0.262,0.143,0.086,east,1.1,No
2020/05/18,09:30,0.182,0.167,0.272,0.260,0.263,0.143,0.086,east,0.6,No
2020/05/18,09:40,0.182,0.166,0.273,0.259,0.262,0.143,0.086,east-southeast,1.2,No
2020/05/18,09:50,0.182,0.167,0.273,0.261,0.261,0.143,0.086,east-southeast,1.8,No
2020/05/18,10:00,0.182,0.166,0.273,0.259,0.263,0.143,0.086,southeast,1.1,No
2020/05/18,10:10,0.181,0.167,0.271,0.261,0.261,0.144,0.086,southeast,1.6,No
2020/05/18,10:20,0.182,0.165,0.272,0.257,0.263,0.143,0.086,southeast,1.6,No
2020/05/18,10:30,0.181,0.166,0.272,0.260,0.260,0.143,0.086,southeast,1.6,No
2020/05/18,10:40,0.183,0.165,0.271,0.258,0.263,0.142,0.086,southeast,1.7,No
2020/05/18,10:50,0.180,0.166,0.272,0.260,0.262,0.143,0.086,east-southeast,1.0,No
2020/05/18,11:00,0.182,0.165,0.273,0.258,0.261,0.143,0.086,south-southeast,0.7,No
2020/05/18,11:10,0.182,0.166,0.272,0.260,0.264,0.144,0.086,east-southeast,0.6,No
2020/05/18,11:20,0.183,0.165,0.273,0.260,0.261,0.143,0.087,east-southeast,0.6,No
2020/05/18,11:30,0.182,0.167,0.272,0.260,0.264,0.142,0.086,southeast,0.9,No
2020/05/18,11:40,0.183,0.166,0.273,0.260,0.262,0.143,0.086,south-southeast,1.3,No
2020/05/18,11:50,0.182,0.166,0.270,0.259,0.264,0.143,0.086,south,1.4,No
2020/05/18,12:00,0.182,0.167,0.274,0.260,0.262,0.144,0.087,south-southeast,1.9,No
2020/05/18,12:10,0.182,0.166,0.271,0.258,0.263,0.143,0.086,south-southeast,2.6,No
2020/05/18,12:20,0.182,0.167,0.274,0.260,0.262,0.143,0.086,southeast,2.1,No
2020/05/18,12:30,0.182,0.166,0.271,0.260,0.262,0.143,0.086,south-southeast,0.9,No
2020/05/18,12:40,0.182,0.166,0.273,0.261,0.263,0.143,0.086,south,0.6,No
2020/05/18,12:50,0.182,0.166,0.273,0.259,0.262,0.143,0.086,south,1.5,No
2020/05/18,13:00,0.182,0.166,0.274,0.261,0.264,0.143,0.086,south,1.7,No
2020/05/18,13:10,0.182,0.167,0.272,0.259,0.260,0.143,0.086,south,1.8,No
2020/05/18,13:20,0.181,0.166,0.274,0.260,0.264,0.143,0.087,south-southeast,1.7,No
2020/05/18,13:30,0.183,0.167,0.274,0.259,0.262,0.143,0.086,south-southeast,2.1,No
2020/05/18,13:40,0.182,0.167,0.272,0.261,0.262,0.143,0.086,south-southeast,2.7,No
2020/05/18,13:50,0.182,0.166,0.273,0.260,0.263,0.143,0.086,southeast,2.6,No
2020/05/18,14:00,0.182,0.166,0.272,0.261,0.262,0.143,0.087,south-southeast,2.8,No
2020/05/18,14:10,0.183,0.167,0.273,0.259,0.264,0.144,0.086,south,2.6,No
2020/05/18,14:20,0.181,0.167,0.272,0.259,0.260,0.143,0.086,south,2.1,No
2020/05/18,14:30,0.183,0.167,0.273,0.260,0.263,0.144,0.086,south,2.0,No
2020/05/18,14:40,0.181,0.167,0.271,0.258,0.262,0.143,0.087,south,2.7,No
2020/05/18,14:50,0.183,0.167,0.274,0.261,0.264,0.143,0.086,south,2.1,No
2020/05/18,15:00,0.182,0.166,0.273,0.258,0.264,0.144,0.086,south-southeast,2.9,No
2020/05/18,15:10,0.181,0.168,0.274,0.260,0.260,0.142,0.086,south-southeast,4.1,No
2020/05/18,15:20,0.181,0.166,0.273,0.258,0.264,0.143,0.086,south-southeast,3.9,No
2020/05/18,15:30,0.181,0.167,0.271,0.259,0.260,0.143,0.087,south-southeast,4.2,No
2020/05/18,15:40,0.184,0.166,0.274,0.261,0.262,0.143,0.086,southeast,3.8,No
2020/05/18,15:50,0.181,0.166,0.272,0.259,0.263,0.143,0.086,south-southeast,4.1,No
2020/05/18,16:00,0.183,0.167,0.273,0.261,0.260,0.143,0.086,southeast,4.6,No
2020/05/18,16:10,0.182,0.167,0.271,0.259,0.263,0.144,0.086,south-southeast,4.9,No
2020/05/18,16:20,0.182,0.167,0.273,0.261,0.259,0.143,0.086,south-southeast,4.4,No
2020/05/18,16:30,0.183,0.166,0.273,0.259,0.263,0.144,0.086,south-southeast,4.5,No
2020/05/18,16:40,0.183,0.165,0.273,0.260,0.262,0.143,0.086,southeast,1.6,No
2020/05/18,16:50,0.181,0.166,0.273,0.258,0.264,0.144,0.086,south-southeast,3.6,No
2020/05/18,17:00,0.182,0.166,0.274,0.261,0.263,0.143,0.086,south-southeast,3.0,No
2020/05/18,17:10,0.182,0.166,0.272,0.260,0.262,0.142,0.087,south-southeast,3.4,No
2020/05/18,17:20,0.182,0.166,0.272,0.261,0.264,0.144,0.086,south-southeast,3.1,No
2020/05/18,17:30,0.183,0.166,0.274,0.258,0.262,0.142,0.087,south,3.4,No
2020/05/18,17:40,0.182,0.167,0.272,0.260,0.264,0.144,0.087,south-southeast,3.4,No
2020/05/18,17:50,0.183,0.167,0.274,0.260,0.261,0.143,0.086,south-southeast,4.0,No
2020/05/18,18:00,0.181,0.167,0.272,0.260,0.264,0.143,0.086,south,3.7,No
2020/05/18,18:10,0.182,0.165,0.275,0.261,0.262,0.144,0.086,south-southeast,4.0,Yes
2020/05/18,18:20,0.183,0.168,0.273,0.260,0.264,0.144,0.087,south-southeast,4.4,Yes
2020/05/18,18:30,0.183,0.167,0.275,0.261,0.262,0.145,0.088,south,4.0,No
2020/05/18,18:40,0.182,0.168,0.274,0.261,0.264,0.145,0.087,south,3.2,Yes
2020/05/18,18:50,0.184,0.167,0.274,0.261,0.262,0.144,0.087,south,2.4,Yes
2020/05/18,19:00,0.183,0.167,0.273,0.262,0.264,0.145,0.087,south,2.1,Yes
2020/05/18,19:10,0.182,0.166,0.274,0.260,0.262,0.145,0.087,south-southwest,1.9,Yes
2020/05/18,19:20,0.183,0.167,0.272,0.261,0.263,0.145,0.088,south-southwest,1.9,Yes
2020/05/18,19:30,0.183,0.167,0.273,0.260,0.263,0.145,0.087,south-southwest,2.0,Yes
2020/05/18,19:40,0.184,0.168,0.272,0.261,0.263,0.145,0.088,south,2.2,Yes
2020/05/18,19:50,0.183,0.168,0.273,0.259,0.263,0.145,0.088,south-southwest,2.2,Yes
2020/05/18,20:00,0.184,0.167,0.273,0.260,0.264,0.146,0.089,south,1.8,Yes
2020/05/18,20:10,0.183,0.169,0.272,0.258,0.264,0.145,0.089,south,2.0,Yes
2020/05/18,20:20,0.183,0.167,0.271,0.260,0.263,0.145,0.089,south-southwest,1.8,Yes
2020/05/18,20:30,0.183,0.168,0.272,0.258,0.261,0.145,0.089,south,1.8,Yes
2020/05/18,20:40,0.183,0.167,0.273,0.260,0.263,0.145,0.089,south,1.7,Yes
2020/05/18,20:50,0.183,0.168,0.271,0.258,0.262,0.146,0.089,south-southeast,1.8,Yes
2020/05/18,21:00,0.185,0.167,0.271,0.260,0.262,0.145,0.089,south,1.3,Yes
2020/05/18,21:10,0.185,0.167,0.270,0.257,0.262,0.146,0.089,south-southeast,1.1,Yes
2020/05/18,21:20,0.183,0.167,0.270,0.260,0.262,0.145,0.089,southeast,1.0,Yes
2020/05/18,21:30,0.184,0.168,0.268,0.258,0.261,0.146,0.089,-,CALM,Yes
2020/05/18,21:40,0.183,0.167,0.270,0.259,0.261,0.145,0.090,east-northeast,0.6,Yes
2020/05/18,21:50,0.182,0.168,0.267,0.257,0.262,0.146,0.089,-,CALM,Yes
2020/05/18,22:00,0.183,0.168,0.270,0.258,0.261,0.146,0.091,north-northeast,0.6,Yes
2020/05/18,22:10,0.183,0.167,0.267,0.255,0.262,0.146,0.090,north,1.1,Yes
2020/05/18,22:20,0.183,0.169,0.268,0.256,0.261,0.145,0.090,north,1.3,Yes
2020/05/18,22:30,0.183,0.167,0.267,0.255,0.262,0.146,0.090,north,2.0,Yes
2020/05/18,22:40,0.184,0.170,0.267,0.257,0.260,0.145,0.091,north-northwest,2.4,Yes
2020/05/18,22:50,0.184,0.168,0.266,0.255,0.262,0.146,0.091,north-northwest,2.0,Yes
2020/05/18,23:00,0.184,0.169,0.269,0.256,0.263,0.147,0.091,north-northwest,1.9,Yes
2020/05/18,23:10,0.184,0.169,0.265,0.255,0.263,0.148,0.091,north-northeast,1.0,Yes
2020/05/18,23:20,0.184,0.170,0.266,0.255,0.263,0.146,0.092,north,2.6,Yes
2020/05/18,23:30,0.183,0.168,0.266,0.257,0.263,0.146,0.090,north-northwest,2.8,Yes
2020/05/18,23:40,0.183,0.167,0.266,0.254,0.261,0.145,0.090,north-northwest,3.2,Yes
2020/05/18,23:50,0.182,0.167,0.265,0.254,0.261,0.145,0.090,north-northwest,3.9,Yes
